When you browse on this site, cookies collect data to enhance your experience and personalize the content and advertising you see.
Visit our Privacy Policy to learn more. By continuing to use the site, you agree to this use of cookies and data.
  • In United Kingdom
  • List of Countries
  • For 7 days
  • Water Temperature
  • Weather Map
  • Weather Widgets
  • user-avatar
    Login

    Hourly Weather Yeghegnadzor

    Today, 25 August, Sunday

    Time Temperature Precipitation Wind Pressure Humidity
    00:00 +23°C° 0 mm 2 mps 654 mmHg 51%
    01:00 +21°C° 0 mm 2 mps 654 mmHg 51%
    02:00 +22°C° 0 mm 1 mps 654 mmHg 50%
    03:00 +20°C° 0 mm 2 mps 654 mmHg 50%
    04:00 +22°C° 0 mm 1 mps 654 mmHg 50%
    05:00 +22°C° 0 mm 1 mps 654 mmHg 49%
    06:00 +22°C° 0 mm 1 mps 655 mmHg 49%
    07:00 +24°C° 0 mm 1 mps 655 mmHg 42%
    08:00 +27°C° 0 mm 1 mps 656 mmHg 36%
    09:00 +29°C° 0 mm 1 mps 657 mmHg 29%
    10:00 +30°C° 0 mm 2 mps 656 mmHg 27%
    11:00 +31°C° 0 mm 3 mps 656 mmHg 25%
    12:00 +33°C° 0 mm 4 mps 656 mmHg 22%
    13:00 +34°C° 0 mm 4 mps 656 mmHg 22%
    14:00 +34°C° 0 mm 4 mps 655 mmHg 21%
    15:00 +34°C° 0 mm 4 mps 656 mmHg 22%
    16:00 +33°C° 0 mm 3 mps 655 mmHg 26%
    17:00 +31°C° 0 mm 2 mps 655 mmHg 30%
    18:00 +30°C° 0 mm 1 mps 655 mmHg 34%
    19:00 +28°C° 0 mm 2 mps 655 mmHg 39%
    20:00 +26°C° 0 mm 2 mps 655 mmHg 45%
    21:00 +25°C° 0 mm 3 mps 655 mmHg 50%
    22:00 +24°C° 0 mm 3 mps 655 mmHg 51%
    23:00 +23°C° 0 mm 2 mps 655 mmHg 52%

    Tomorrow, 26 August, Monday

    Time Temperature Precipitation Wind Pressure Humidity
    00:00 +23°C° 0 mm 2 mps 655 mmHg 52%
    01:00 +21°C° 0 mm 2 mps 654 mmHg 53%
    02:00 +20°C° 0 mm 2 mps 654 mmHg 54%
    03:00 +21°C° 0 mm 1 mps 654 mmHg 55%
    04:00 +21°C° 0 mm 1 mps 654 mmHg 55%
    05:00 +21°C° 0 mm 1 mps 655 mmHg 54%
    06:00 +21°C° 0 mm 1 mps 655 mmHg 54%
    07:00 +24°C° 0 mm 1 mps 655 mmHg 47%
    08:00 +26°C° 0 mm 1 mps 656 mmHg 40%
    09:00 +29°C° 0 mm 1 mps 657 mmHg 33%
    10:00 +30°C° 0 mm 2 mps 657 mmHg 30%
    11:00 +31°C° 0 mm 3 mps 657 mmHg 28%
    12:00 +33°C° 0 mm 4 mps 657 mmHg 25%
    13:00 +34°C° 0 mm 3 mps 656 mmHg 23%
    14:00 +34°C° 0 mm 3 mps 656 mmHg 21%
    15:00 +35°C° 0 mm 3 mps 656 mmHg 20%
    16:00 +33°C° 0 mm 3 mps 655 mmHg 24%
    17:00 +31°C° 0 mm 3 mps 655 mmHg 28%
    18:00 +29°C° 0 mm 3 mps 655 mmHg 32%
    19:00 +27°C° 0.2 mm 3 mps 655 mmHg 39%
    20:00 +25°C° 0.2 mm 3 mps 655 mmHg 46%
    21:00 +21°C° 0.2 mm 3 mps 655 mmHg 53%
    22:00 +20°C° 0.1 mm 3 mps 655 mmHg 55%
    23:00 +20°C° 0.1 mm 3 mps 655 mmHg 56%

    Day after tomorrow, 27 August, Tuesday

    Time Temperature Precipitation Wind Pressure Humidity
    00:00 +19°C° 0.1 mm 2 mps 655 mmHg 58%
    01:00 +19°C° 0.1 mm 2 mps 655 mmHg 58%
    02:00 +19°C° 0.1 mm 2 mps 655 mmHg 57%
    03:00 +19°C° 0.1 mm 1 mps 655 mmHg 57%
    04:00 +19°C° 0 mm 1 mps 655 mmHg 55%
    05:00 +20°C° 0 mm 1 mps 655 mmHg 54%
    06:00 +20°C° 0 mm 1 mps 655 mmHg 53%
    07:00 +22°C° 0 mm 1 mps 655 mmHg 46%
    08:00 +24°C° 0 mm 1 mps 656 mmHg 40%
    09:00 +27°C° 0 mm 1 mps 656 mmHg 33%
    10:00 +28°C° 0 mm 2 mps 656 mmHg 30%
    11:00 +29°C° 0 mm 3 mps 656 mmHg 27%
    12:00 +31°C° 0 mm 3 mps 656 mmHg 24%
    13:00 +31°C° 0 mm 3 mps 656 mmHg 22%
    14:00 +33°C° 0 mm 3 mps 655 mmHg 20%
    15:00 +34°C° 0 mm 4 mps 655 mmHg 18%
    16:00 +33°C° 0 mm 3 mps 655 mmHg 22%
    17:00 +30°C° 0 mm 2 mps 654 mmHg 26%
    18:00 +29°C° 0 mm 2 mps 654 mmHg 30%
    19:00 +27°C° 0 mm 2 mps 653 mmHg 39%
    20:00 +25°C° 0 mm 2 mps 653 mmHg 47%
    21:00 +21°C° 0 mm 3 mps 653 mmHg 56%
    22:00 +21°C° 0 mm 3 mps 653 mmHg 56%
    23:00 +20°C° 0 mm 2 mps 653 mmHg 56%

    28 August, Wednesday

    Time Temperature Precipitation Wind Pressure Humidity
    00:00 +20°C° 0 mm 2 mps 653 mmHg 56%
    01:00 +19°C° 0 mm 2 mps 653 mmHg 57%
    02:00 +19°C° 0 mm 2 mps 652 mmHg 59%
    03:00 +19°C° 0 mm 1 mps 652 mmHg 60%
    04:00 +19°C° 0 mm 1 mps 653 mmHg 60%
    05:00 +19°C° 0 mm 1 mps 653 mmHg 60%
    06:00 +20°C° 0 mm 1 mps 653 mmHg 59%
    07:00 +22°C° 0 mm 1 mps 654 mmHg 51%
    08:00 +24°C° 0 mm 1 mps 655 mmHg 43%
    09:00 +27°C° 0 mm 1 mps 655 mmHg 35%
    10:00 +28°C° 0 mm 2 mps 655 mmHg 32%
    11:00 +30°C° 0 mm 3 mps 655 mmHg 29%
    12:00 +31°C° 0 mm 3 mps 655 mmHg 25%
    13:00 +31°C° 0 mm 3 mps 655 mmHg 23%
    14:00 +33°C° 0 mm 3 mps 655 mmHg 21%
    15:00 +33°C° 0 mm 3 mps 655 mmHg 20%
    16:00 +31°C° 0 mm 3 mps 654 mmHg 23%
    17:00 +30°C° 0 mm 2 mps 654 mmHg 26%
    18:00 +29°C° 0 mm 2 mps 654 mmHg 30%
    19:00 +27°C° 0 mm 2 mps 654 mmHg 38%
    20:00 +25°C° 0 mm 2 mps 654 mmHg 46%
    21:00 +23°C° 0 mm 2 mps 653 mmHg 54%
    22:00 +21°C° 0 mm 2 mps 654 mmHg 54%
    23:00 +21°C° 0 mm 2 mps 654 mmHg 55%

    29 August, Thursday

    Time Temperature Precipitation Wind Pressure Humidity
    00:00 +20°C° 0 mm 2 mps 654 mmHg 55%
    01:00 +20°C° 0 mm 2 mps 654 mmHg 55%
    02:00 +21°C° 0 mm 1 mps 653 mmHg 55%
    03:00 +20°C° 0 mm 1 mps 653 mmHg 55%
    04:00 +20°C° 0 mm 1 mps 654 mmHg 53%
    05:00 +20°C° 0 mm 1 mps 654 mmHg 52%
    06:00 +21°C° 0 mm 1 mps 654 mmHg 50%
    07:00 +23°C° 0 mm 1 mps 654 mmHg 43%
    08:00 +26°C° 0 mm 1 mps 655 mmHg 36%
    09:00 +28°C° 0 mm 2 mps 656 mmHg 28%
    10:00 +30°C° 0 mm 2 mps 656 mmHg 25%
    11:00 +31°C° 0 mm 3 mps 656 mmHg 22%
    12:00 +34°C° 0 mm 4 mps 655 mmHg 19%
    13:00 +34°C° 0 mm 4 mps 655 mmHg 18%
    14:00 +35°C° 0 mm 5 mps 655 mmHg 18%
    15:00 +35°C° 0 mm 5 mps 654 mmHg 17%
    16:00 +34°C° 0 mm 5 mps 654 mmHg 21%
    17:00 +33°C° 0 mm 4 mps 654 mmHg 24%
    18:00 +30°C° 0 mm 4 mps 654 mmHg 28%
    19:00 +29°C° 0.2 mm 4 mps 654 mmHg 34%
    20:00 +27°C° 0.2 mm 4 mps 654 mmHg 41%
    21:00 +25°C° 0.2 mm 3 mps 654 mmHg 47%
    22:00 +24°C° 0 mm 3 mps 654 mmHg 48%
    23:00 +24°C° 0 mm 2 mps 654 mmHg 49%

    30 August, Friday

    Time Temperature Precipitation Wind Pressure Humidity
    00:00 +24°C° 0 mm 2 mps 654 mmHg 50%
    01:00 +23°C° 0.1 mm 2 mps 654 mmHg 52%
    02:00 +22°C° 0.1 mm 1 mps 653 mmHg 54%
    03:00 +22°C° 0.1 mm 1 mps 653 mmHg 57%
    04:00 +22°C° 0.1 mm 1 mps 653 mmHg 57%
    05:00 +21°C° 0.1 mm 1 mps 653 mmHg 57%
    06:00 +21°C° 0.1 mm 1 mps 653 mmHg 57%
    07:00 +23°C° 0.2 mm 1 mps 654 mmHg 52%
    08:00 +25°C° 0.2 mm 1 mps 654 mmHg 47%
    09:00 +27°C° 0.2 mm 1 mps 654 mmHg 41%
    10:00 +28°C° 0.1 mm 2 mps 654 mmHg 39%
    11:00 +28°C° 0.1 mm 2 mps 654 mmHg 37%
    12:00 +29°C° 0.1 mm 3 mps 654 mmHg 34%
    13:00 +29°C° 0.1 mm 3 mps 653 mmHg 34%
    14:00 +29°C° 0.1 mm 4 mps 653 mmHg 34%
    15:00 +29°C° 0.1 mm 4 mps 652 mmHg 35%
    16:00 +29°C° 0.1 mm 3 mps 652 mmHg 36%
    17:00 +29°C° 0.1 mm 2 mps 652 mmHg 37%
    18:00 +28°C° 0.1 mm 1 mps 652 mmHg 38%
    19:00 +26°C° 0 mm 2 mps 652 mmHg 48%
    20:00 +24°C° 0 mm 3 mps 652 mmHg 58%
    21:00 +21°C° 0 mm 3 mps 652 mmHg 68%
    22:00 +20°C° 0 mm 3 mps 651 mmHg 69%
    23:00 +20°C° 0 mm 3 mps 651 mmHg 71%
    Show more